| time (UTC) | temp F | wind direction | speed MPH | gust MPH | rain 1hr in | rain 24hr in | rain mn in | humidity % | barometer mb |
| 20260507141532 | 53 | 323 | 1.0 | 1.0 | 0.00 | 0.00 | 0.00 | 68 | 1007.4 |
| 20260507141029 | 55 | 300 | 2.0 | 2.0 | 0.00 | 0.00 | 0.00 | 69 | 1007.2 |
| 20260507140526 | 55 | 341 | 0.0 | 0.0 | 0.00 | 0.00 | 0.00 | 65 | 1007.3 |
| 20260507140024 | 55 | 254 | 3.0 | 3.0 | 0.00 | 0.00 | 0.00 | 67 | 1007.6 |
| 20260507135520 | 53 | 333 | 1.0 | 1.0 | 0.00 | 0.00 | 0.00 | 68 | 1007.3 |
| 20260507135018 | 54 | 183 | 3.0 | 5.0 | 0.00 | 0.00 | 0.00 | 68 | 1007.5 |
| 20260507134514 | 53 | 39 | 2.0 | 2.0 | 0.00 | 0.00 | 0.00 | 73 | 1007.7 |
| 20260507134010 | 53 | 206 | 3.0 | 3.0 | 0.00 | 0.00 | 0.00 | 70 | 1007.5 |
| 20260507133506 | 52 | 310 | 2.0 | 2.0 | 0.00 | 0.00 | 0.00 | 73 | 1007.6 |
| 20260507133005 | 52 | 303 | 3.0 | 3.0 | 0.00 | 0.00 | 0.00 | 72 | 1007.5 |
| 20260507132501 | 54 | 297 | 2.0 | 3.0 | 0.00 | 0.00 | 0.00 | 70 | 1007.4 |
| 20260507131957 | 53 | 201 | 3.0 | 3.0 | 0.00 | 0.00 | 0.00 | 70 | 1007.6 |
| 20260507131454 | 53 | 195 | 5.0 | 6.0 | 0.00 | 0.00 | 0.00 | 71 | 1007.7 |
| 20260507130951 | 53 | 304 | 2.0 | 2.0 | 0.00 | 0.00 | 0.00 | 73 | 1007.7 |
| 20260507130448 | 53 | 307 | 1.0 | 2.0 | 0.00 | 0.00 | 0.00 | 75 | 1007.5 |
| 20260507125946 | 53 | 283 | 2.0 | 2.0 | 0.00 | 0.00 | 0.00 | 73 | 1007.8 |
| 20260507125444 | 52 | 322 | 1.0 | 2.0 | 0.00 | 0.00 | 0.00 | 75 | 1007.7 |
| 20260507124941 | 52 | 318 | 1.0 | 2.0 | 0.00 | 0.00 | 0.00 | 75 | 1007.7 |
| 20260507124438 | 52 | 332 | 0.0 | 1.0 | 0.00 | 0.00 | 0.00 | 78 | 1007.7 |
| 20260507123936 | 51 | 283 | 1.0 | 2.0 | 0.00 | 0.00 | 0.00 | 77 | 1007.4 |
| 20260507123433 | 51 | 320 | 1.0 | 1.0 | 0.00 | 0.00 | 0.00 | 81 | 1007.8 |
| 20260507122929 | 51 | 305 | 2.0 | 3.0 | 0.00 | 0.00 | 0.00 | 79 | 1007.5 |
| 20260507122424 | 50 | 317 | 1.0 | 2.0 | 0.00 | 0.00 | 0.00 | 81 | 1007.7 |
| 20260507121921 | 50 | 290 | 2.0 | 2.0 | 0.00 | 0.00 | 0.00 | 81 | 1007.7 |
| 20260507121416 | 50 | 315 | 1.0 | 1.0 | 0.00 | 0.00 | 0.00 | 80 | 1007.7 |
| 20260507120913 | 49 | 308 | 2.0 | 2.0 | 0.00 | 0.00 | 0.00 | 83 | 1008.0 |
| 20260507120410 | 48 | 299 | 1.0 | 2.0 | 0.00 | 0.00 | 0.00 | 86 | 1008.2 |
| 20260507115906 | 48 | 337 | 0.0 | 0.0 | 0.00 | 0.00 | 0.00 | 86 | 1008.1 |
| 20260507115402 | 47 | 328 | 2.0 | 2.0 | 0.00 | 0.00 | 0.00 | 89 | 1008.0 |
| 20260507114858 | 47 | 306 | 1.0 | 2.0 | 0.00 | 0.00 | 0.00 | 88 | 1008.1 |
| 20260507114355 | 47 | 316 | 0.0 | 1.0 | 0.00 | 0.00 | 0.00 | 91 | 1007.8 |
| 20260507113852 | 46 | 333 | 0.0 | 0.0 | 0.00 | 0.00 | 0.00 | 90 | 1008.1 |
| 20260507113349 | 46 | 282 | 1.0 | 2.0 | 0.00 | 0.00 | 0.00 | 90 | 1007.6 |
| 20260507112846 | 46 | 330 | 2.0 | 2.0 | 0.00 | 0.00 | 0.00 | 91 | 1007.6 |
| 20260507112344 | 45 | 314 | 1.0 | 1.0 | 0.00 | 0.00 | 0.00 | 92 | 1007.7 |
| 20260507111841 | 45 | 325 | 1.0 | 1.0 | 0.00 | 0.00 | 0.00 | 92 | 1007.5 |
| 20260507111338 | 45 | 326 | 1.0 | 1.0 | 0.00 | 0.00 | 0.00 | 92 | 1007.8 |
| 20260507110834 | 45 | 306 | 2.0 | 2.0 | 0.00 | 0.00 | 0.00 | 93 | 1007.8 |
| 20260507110330 | 45 | 320 | 0.0 | 1.0 | 0.00 | 0.00 | 0.00 | 93 | 1007.7 |
| 20260507105827 | 44 | 302 | 2.0 | 2.0 | 0.00 | 0.00 | 0.00 | 94 | 1007.5 |
| 20260507105324 | 44 | 317 | 0.0 | 0.0 | 0.00 | 0.00 | 0.00 | 94 | 1007.5 |
| 20260507104821 | 44 | 323 | 1.0 | 1.0 | 0.00 | 0.00 | 0.00 | 94 | 1007.6 |
| 20260507104317 | 44 | 331 | 0.0 | 0.0 | 0.00 | 0.00 | 0.00 | 94 | 1007.5 |
| 20260507103813 | 44 | 334 | 0.0 | 0.0 | 0.00 | 0.00 | 0.00 | 94 | 1007.2 |
| 20260507103310 | 44 | 330 | 0.0 | 1.0 | 0.00 | 0.00 | 0.00 | 94 | 1007.3 |
| 20260507102806 | 44 | 335 | 0.0 | 0.0 | 0.00 | 0.00 | 0.00 | 94 | 1007.4 |
| 20260507102306 | 44 | 319 | 1.0 | 1.0 | 0.00 | 0.00 | 0.00 | 94 | 1007.4 |
| 20260507101759 | 44 | 321 | 1.0 | 1.0 | 0.00 | 0.00 | 0.00 | 94 | 1007.4 |
| 20260507101259 | 44 | 323 | 1.0 | 1.0 | 0.00 | 0.00 | 0.00 | 93 | 1007.3 |
| 20260507100757 | 44 | 326 | 1.0 | 1.0 | 0.00 | 0.00 | 0.00 | 94 | 1007.2 |
| 20260507100255 | 44 | 333 | 0.0 | 0.0 | 0.00 | 0.00 | 0.00 | 94 | 1006.9 |
| 20260507095753 | 45 | 334 | 0.0 | 0.0 | 0.00 | 0.00 | 0.00 | 93 | 1007.2 |
| 20260507095249 | 44 | 325 | 1.0 | 1.0 | 0.00 | 0.00 | 0.00 | 93 | 1007.4 |
| 20260507094746 | 44 | 311 | 2.0 | 2.0 | 0.00 | 0.00 | 0.00 | 93 | 1007.4 |
| 20260507094243 | 44 | 339 | 1.0 | 1.0 | 0.00 | 0.00 | 0.00 | 94 | 1006.9 |
| 20260507093740 | 45 | 316 | 1.0 | 1.0 | 0.00 | 0.00 | 0.00 | 94 | 1007.2 |
| 20260507093238 | 44 | 283 | 2.0 | 2.0 | 0.00 | 0.00 | 0.00 | 94 | 1007.4 |
| 20260507092736 | 45 | 299 | 2.0 | 2.0 | 0.00 | 0.00 | 0.00 | 94 | 1007.4 |
| 20260507092231 | 45 | 335 | 0.0 | 0.0 | 0.00 | 0.00 | 0.00 | 95 | 1007.6 |
| 20260507091728 | 45 | 332 | 0.0 | 0.0 | 0.00 | 0.00 | 0.00 | 95 | 1007.4 |
| 20260507091225 | 45 | 334 | 0.0 | 0.0 | 0.00 | 0.00 | 0.00 | 95 | 1007.4 |
| 20260507090720 | 45 | 330 | 0.0 | 0.0 | 0.00 | 0.00 | 0.00 | 95 | 1007.3 |
| 20260507090217 | 45 | 325 | 0.0 | 1.0 | 0.00 | 0.00 | 0.00 | 95 | 1007.5 |
| 20260507085714 | 45 | 326 | 1.0 | 1.0 | 0.00 | 0.00 | 0.00 | 95 | 1007.6 |
| 20260507085211 | 45 | 323 | 1.0 | 1.0 | 0.00 | 0.00 | 0.00 | 95 | 1007.7 |
| 20260507084708 | 45 | 305 | 2.0 | 2.0 | 0.00 | 0.00 | 0.00 | 94 | 1007.1 |
| 20260507084204 | 45 | 322 | 1.0 | 1.0 | 0.00 | 0.00 | 0.00 | 94 | 1007.1 |
| 20260507083702 | 45 | 318 | 0.0 | 1.0 | 0.00 | 0.00 | 0.00 | 94 | 1007.0 |
| 20260507083158 | 45 | 312 | 1.0 | 1.0 | 0.00 | 0.00 | 0.00 | 93 | 1007.4 |
| 20260507082654 | 45 | 333 | 0.0 | 0.0 | 0.00 | 0.00 | 0.00 | 93 | 1006.8 |
| 20260507082150 | 45 | 306 | 1.0 | 2.0 | 0.00 | 0.00 | 0.00 | 93 | 1007.2 |
| 20260507081647 | 45 | 316 | 1.0 | 1.0 | 0.00 | 0.00 | 0.00 | 93 | 1007.0 |
| 20260507081143 | 45 | 326 | 0.0 | 0.0 | 0.00 | 0.00 | 0.00 | 93 | 1007.1 |
| 20260507080640 | 46 | 332 | 0.0 | 0.0 | 0.00 | 0.00 | 0.00 | 93 | 1006.9 |
| 20260507080137 | 46 | 334 | 0.0 | 0.0 | 0.00 | 0.00 | 0.00 | 93 | 1006.6 |
| 20260507075631 | 46 | 332 | 1.0 | 1.0 | 0.00 | 0.00 | 0.00 | 93 | 1006.9 |
| 20260507075128 | 46 | 326 | 0.0 | 1.0 | 0.00 | 0.00 | 0.00 | 92 | 1007.0 |
| 20260507074624 | 46 | 294 | 2.0 | 2.0 | 0.00 | 0.00 | 0.00 | 92 | 1007.3 |
| 20260507074123 | 46 | 310 | 1.0 | 1.0 | 0.00 | 0.00 | 0.00 | 93 | 1006.9 |
| 20260507073619 | 46 | 329 | 1.0 | 1.0 | 0.00 | 0.00 | 0.00 | 92 | 1007.0 |
| 20260507073115 | 46 | 298 | 2.0 | 2.0 | 0.00 | 0.00 | 0.00 | 92 | 1006.8 |
| 20260507072613 | 46 | 323 | 1.0 | 1.0 | 0.00 | 0.00 | 0.00 | 92 | 1007.0 |
| 20260507072110 | 46 | 306 | 1.0 | 2.0 | 0.00 | 0.00 | 0.00 | 92 | 1006.7 |
| 20260507071607 | 46 | 314 | 1.0 | 1.0 | 0.00 | 0.00 | 0.00 | 92 | 1006.3 |
| 20260507071104 | 46 | 274 | 1.0 | 2.0 | 0.00 | 0.00 | 0.00 | 93 | 1006.7 |
| 20260507070601 | 46 | 301 | 1.0 | 1.0 | 0.00 | 0.00 | 0.00 | 93 | 1006.7 |
| 20260507070058 | 46 | 302 | 2.0 | 2.0 | 0.00 | 0.00 | 0.00 | 93 | 1006.7 |
| 20260507065554 | 46 | 294 | 2.0 | 3.0 | 0.00 | 0.00 | 0.00 | 93 | 1006.4 |
| 20260507065051 | 46 | 300 | 1.0 | 1.0 | 0.00 | 0.00 | 0.00 | 94 | 1006.6 |
| 20260507064549 | 46 | 298 | 1.0 | 1.0 | 0.00 | 0.00 | 0.00 | 95 | 1006.6 |
| 20260507064048 | 46 | 285 | 3.0 | 3.0 | 0.00 | 0.00 | 0.00 | 95 | 1006.4 |
| 20260507063544 | 46 | 338 | 0.0 | 1.0 | 0.00 | 0.00 | 0.00 | 96 | 1006.6 |
| 20260507063042 | 47 | 267 | 2.0 | 2.0 | 0.00 | 0.00 | 0.00 | 96 | 1006.8 |
| 20260507062538 | 47 | 308 | 1.0 | 2.0 | 0.00 | 0.00 | 0.00 | 96 | 1006.7 |
| 20260507062036 | 47 | 326 | 1.0 | 1.0 | 0.00 | 0.00 | 0.00 | 96 | 1006.3 |
| 20260507061533 | 47 | 325 | 1.0 | 1.0 | 0.00 | 0.00 | 0.00 | 96 | 1006.7 |
| 20260507061031 | 47 | 327 | 1.0 | 1.0 | 0.00 | 0.00 | 0.00 | 96 | 1007.0 |
| 20260507060529 | 47 | 320 | 1.0 | 1.0 | 0.00 | 0.00 | 0.00 | 96 | 1006.8 |
| 20260507060026 | 47 | 317 | 1.0 | 1.0 | 0.00 | 0.00 | 0.00 | 95 | 1006.5 |
| 20260507055526 | 47 | 320 | 1.0 | 1.0 | 0.00 | 0.00 | 0.00 | 95 | 1006.6 |
| 20260507055022 | 47 | 300 | 2.0 | 2.0 | 0.00 | 0.00 | 0.00 | 95 | 1006.8 |
| 20260507054519 | 47 | 295 | 2.0 | 2.0 | 0.00 | 0.00 | 0.00 | 95 | 1007.0 |
| 20260507054016 | 47 | 337 | 2.0 | 3.0 | 0.00 | 0.00 | 0.00 | 95 | 1006.6 |
| 20260507053514 | 47 | 297 | 1.0 | 1.0 | 0.00 | 0.00 | 0.00 | 96 | 1006.7 |
| 20260507053012 | 47 | 303 | 1.0 | 2.0 | 0.00 | 0.00 | 0.00 | 96 | 1006.8 |
| 20260507052509 | 47 | 320 | 1.0 | 1.0 | 0.00 | 0.00 | 0.00 | 96 | 1006.8 |
| 20260507052006 | 47 | 313 | 2.0 | 2.0 | 0.00 | 0.00 | 0.00 | 95 | 1006.7 |
| 20260507051504 | 47 | 322 | 2.0 | 2.0 | 0.00 | 0.00 | 0.00 | 95 | 1007.1 |
| 20260507051000 | 47 | 302 | 1.0 | 2.0 | 0.00 | 0.00 | 0.00 | 95 | 1006.8 |
| 20260507050456 | 47 | 297 | 3.0 | 3.0 | 0.00 | 0.00 | 0.00 | 95 | 1006.9 |
| 20260507045953 | 47 | 312 | 3.0 | 3.0 | 0.00 | 0.00 | 0.00 | 95 | 1007.0 |
| 20260507045450 | 47 | 292 | 3.0 | 3.0 | 0.00 | 0.00 | 0.00 | 95 | 1006.8 |
| 20260507044948 | 47 | 32 | 1.0 | 1.0 | 0.00 | 0.00 | 0.00 | 95 | 1006.8 |
| 20260507044444 | 47 | 302 | 2.0 | 2.0 | 0.00 | 0.00 | 0.00 | 95 | 1006.6 |
| 20260507043940 | 47 | 283 | 2.0 | 2.0 | 0.00 | 0.00 | 0.00 | 95 | 1006.6 |
| 20260507043436 | 47 | 303 | 2.0 | 2.0 | 0.00 | 0.00 | 0.00 | 96 | 1006.4 |
| 20260507042933 | 48 | 183 | 3.0 | 3.0 | 0.00 | 0.00 | 0.00 | 96 | 1006.4 |
| 20260507042430 | 48 | 335 | 0.0 | 1.0 | 0.00 | 0.00 | 0.00 | 96 | 1006.9 |
| 20260507041925 | 48 | 292 | 2.0 | 2.0 | 0.00 | 0.00 | 0.00 | 96 | 1007.1 |
| 20260507041422 | 49 | 192 | 3.0 | 3.0 | 0.00 | 0.00 | 0.00 | 96 | 1007.2 |
| 20260507040920 | 49 | 320 | 1.0 | 1.0 | 0.00 | 0.00 | 0.00 | 96 | 1006.9 |
| 20260507040415 | 48 | 302 | 2.0 | 2.0 | 0.00 | 0.00 | 0.00 | 96 | 1006.8 |
| 20260507035911 | 48 | 285 | 1.0 | 2.0 | 0.00 | 0.25 | 0.25 | 96 | 1006.8 |
| 20260507035408 | 49 | 303 | 1.0 | 2.0 | 0.00 | 0.25 | 0.25 | 97 | 1006.5 |
| 20260507034905 | 49 | 126 | 3.0 | 3.0 | 0.00 | 0.25 | 0.25 | 97 | 1006.7 |
| 20260507034401 | 50 | 334 | 1.0 | 1.0 | 0.00 | 0.25 | 0.25 | 97 | 1006.6 |
| 20260507033859 | 50 | 317 | 1.0 | 2.0 | 0.00 | 0.25 | 0.25 | 97 | 1006.4 |
| 20260507033358 | 50 | 308 | 2.0 | 3.0 | 0.00 | 0.25 | 0.25 | 97 | 1006.3 |
| 20260507032854 | 50 | 317 | 1.0 | 1.0 | 0.00 | 0.25 | 0.25 | 97 | 1006.4 |
| 20260507032351 | 50 | 294 | 2.0 | 2.0 | 0.00 | 0.25 | 0.25 | 97 | 1006.3 |
| 20260507031847 | 51 | 326 | 1.0 | 1.0 | 0.00 | 0.25 | 0.25 | 97 | 1006.1 |
| 20260507031344 | 51 | 317 | 1.0 | 1.0 | 0.00 | 0.25 | 0.25 | 97 | 1006.5 |
| 20260507030840 | 51 | 326 | 2.0 | 2.0 | 0.05 | 0.25 | 0.25 | 97 | 1006.4 |
| 20260507030338 | 52 | 320 | 3.0 | 3.0 | 0.12 | 0.25 | 0.25 | 97 | 1006.2 |
| 20260507025834 | 52 | 293 | 1.0 | 2.0 | 0.17 | 0.25 | 0.25 | 97 | 1006.2 |
| 20260507025332 | 52 | 307 | 1.0 | 1.0 | 0.19 | 0.23 | 0.23 | 97 | 1006.4 |
| 20260507024830 | 53 | 314 | 0.0 | 1.0 | 0.14 | 0.22 | 0.22 | 97 | 1006.5 |
| 20260507024327 | 53 | 288 | 2.0 | 2.0 | 0.00 | 0.20 | 0.20 | 97 | 1006.6 |
| 20260507023823 | 53 | 249 | 2.0 | 2.0 | 0.00 | 0.20 | 0.20 | 97 | 1006.3 |
| 20260507023319 | 53 | 332 | 1.0 | 2.0 | 0.05 | 0.20 | 0.20 | 97 | 1006.3 |
| 20260507022817 | 53 | 329 | 1.0 | 1.0 | 0.12 | 0.20 | 0.20 | 97 | 1006.1 |
| 20260507022313 | 54 | 309 | 1.0 | 1.0 | 0.07 | 0.19 | 0.19 | 97 | 1005.9 |
| 20260507021809 | 54 | 325 | 2.0 | 3.0 | 0.00 | 0.18 | 0.18 | 97 | 1006.0 |
| 20260507021305 | 55 | 304 | 1.0 | 2.0 | 0.00 | 0.18 | 0.18 | 97 | 1005.9 |
| 20260507020803 | 55 | 333 | 1.0 | 1.0 | 0.00 | 0.18 | 0.18 | 97 | 1005.8 |
| 20260507020259 | 55 | 310 | 1.0 | 1.0 | 0.00 | 0.18 | 0.18 | 97 | 1005.9 |
| 20260507015757 | 56 | 287 | 2.0 | 3.0 | 0.05 | 0.18 | 0.18 | 97 | 1005.7 |
| 20260507015254 | 56 | 323 | 0.0 | 1.0 | 0.05 | 0.18 | 0.18 | 96 | 1005.5 |
| 20260507014751 | 56 | 315 | 0.0 | 1.0 | 0.00 | 0.17 | 0.17 | 96 | 1005.5 |
| 20260507014247 | 57 | 328 | 2.0 | 2.0 | 0.00 | 0.17 | 0.17 | 96 | 1005.5 |
| 20260507013744 | 58 | 319 | 1.0 | 1.0 | 0.12 | 0.17 | 0.17 | 96 | 1005.2 |
| 20260507013241 | 58 | 312 | 1.0 | 1.0 | 0.31 | 0.17 | 0.17 | 96 | 1005.3 |
| 20260507012739 | 58 | 335 | 0.0 | 0.0 | 0.24 | 0.15 | 0.15 | 96 | 1005.2 |
| 20260507012234 | 58 | 337 | 0.0 | 1.0 | 0.12 | 0.13 | 0.13 | 96 | 1005.2 |
| 20260507011732 | 58 | 331 | 0.0 | 0.0 | 0.00 | 0.11 | 0.11 | 96 | 1005.0 |
| 20260507011228 | 58 | 337 | 0.0 | 0.0 | 0.00 | 0.11 | 0.11 | 96 | 1005.0 |
| 20260507010728 | 58 | 332 | 0.0 | 0.0 | 0.00 | 0.11 | 0.11 | 96 | 1005.0 |
| 20260507010224 | 58 | 337 | 0.0 | 0.0 | 0.00 | 0.11 | 0.11 | 96 | 1005.0 |
| 20260507005722 | 58 | 341 | 0.0 | 0.0 | 0.00 | 0.11 | 0.11 | 96 | 1005.1 |
| 20260507005218 | 58 | 334 | 0.0 | 0.0 | 0.00 | 0.11 | 0.11 | 96 | 1005.0 |
| 20260507004714 | 58 | 335 | 0.0 | 0.0 | 0.00 | 0.11 | 0.11 | 96 | 1005.1 |
| 20260507004212 | 58 | 332 | 0.0 | 0.0 | 0.00 | 0.11 | 0.11 | 96 | 1005.0 |
| 20260507003708 | 58 | 334 | 1.0 | 1.0 | 0.00 | 0.11 | 0.11 | 96 | 1005.0 |
| 20260507003203 | 58 | 22 | 2.0 | 3.0 | 0.00 | 0.11 | 0.11 | 96 | 1004.8 |
| 20260507002700 | 58 | 33 | 2.0 | 2.0 | 0.00 | 0.11 | 0.11 | 96 | 1004.7 |
| 20260507002156 | 58 | 335 | 0.0 | 0.0 | 0.00 | 0.11 | 0.11 | 96 | 1004.8 |
| 20260507001653 | 58 | 340 | 0.0 | 0.0 | 0.00 | 0.11 | 0.11 | 96 | 1004.7 |
| 20260507001150 | 58 | 333 | 1.0 | 1.0 | 0.00 | 0.11 | 0.11 | 96 | 1004.7 |
| 20260507000646 | 58 | 336 | 0.0 | 1.0 | 0.00 | 0.11 | 0.11 | 96 | 1004.8 |
| 20260507000142 | 58 | 336 | 0.0 | 0.0 | 0.00 | 0.11 | 0.11 | 96 | 1004.7 |
| 20260506235639 | 58 | 335 | 0.0 | 0.0 | 0.00 | 0.11 | 0.11 | 96 | 1004.7 |
| 20260506235140 | 58 | 343 | 0.0 | 0.0 | 0.00 | 0.11 | 0.11 | 96 | 1004.7 |
| 20260506234637 | 58 | 334 | 0.0 | 0.0 | 0.00 | 0.11 | 0.11 | 96 | 1004.6 |
| 20260506234134 | 58 | 332 | 1.0 | 1.0 | 0.00 | 0.11 | 0.11 | 96 | 1004.5 |
| 20260506233631 | 58 | 335 | 0.0 | 0.0 | 0.00 | 0.11 | 0.11 | 96 | 1004.4 |
| 20260506233128 | 58 | 331 | 0.0 | 1.0 | 0.00 | 0.11 | 0.11 | 95 | 1004.6 |
| 20260506232624 | 58 | 337 | 0.0 | 1.0 | 0.00 | 0.11 | 0.11 | 95 | 1004.4 |
| 20260506232120 | 58 | 333 | 1.0 | 1.0 | 0.00 | 0.11 | 0.11 | 95 | 1004.7 |
| 20260506231617 | 58 | 335 | 1.0 | 1.0 | 0.00 | 0.11 | 0.11 | 95 | 1004.6 |
| 20260506231115 | 58 | 331 | 1.0 | 2.0 | 0.00 | 0.11 | 0.11 | 95 | 1004.7 |
| 20260506230612 | 58 | 356 | 0.0 | 1.0 | 0.00 | 0.11 | 0.11 | 95 | 1004.4 |
| 20260506230109 | 58 | 337 | 1.0 | 1.0 | 0.00 | 0.11 | 0.11 | 95 | 1004.5 |
| 20260506225605 | 58 | 343 | 0.0 | 1.0 | 0.00 | 0.11 | 0.11 | 95 | 1004.9 |
| 20260506225102 | 58 | 164 | 2.0 | 3.0 | 0.00 | 0.11 | 0.11 | 95 | 1004.8 |
| 20260506224559 | 58 | 325 | 1.0 | 2.0 | 0.00 | 0.11 | 0.11 | 95 | 1004.7 |
| 20260506224055 | 58 | 334 | 0.0 | 0.0 | 0.00 | 0.11 | 0.11 | 95 | 1004.6 |
| 20260506223551 | 58 | 335 | 0.0 | 1.0 | 0.00 | 0.11 | 0.11 | 95 | 1004.8 |
| 20260506223048 | 58 | 330 | 1.0 | 2.0 | 0.00 | 0.11 | 0.11 | 95 | 1004.8 |
| 20260506222545 | 58 | 302 | 1.0 | 2.0 | 0.00 | 0.11 | 0.11 | 95 | 1004.8 |
| 20260506222041 | 58 | 333 | 0.0 | 1.0 | 0.00 | 0.11 | 0.11 | 95 | 1004.8 |
| 20260506221539 | 59 | 341 | 0.0 | 0.0 | 0.00 | 0.11 | 0.11 | 95 | 1005.0 |
| 20260506221037 | 59 | 356 | 1.0 | 2.0 | 0.00 | 0.11 | 0.11 | 95 | 1004.9 |
| 20260506220532 | 59 | 317 | 0.0 | 0.0 | 0.00 | 0.11 | 0.11 | 95 | 1004.9 |
| 20260506220028 | 59 | 332 | 0.0 | 0.0 | 0.00 | 0.11 | 0.11 | 95 | 1004.9 |
| 20260506215525 | 59 | 10 | 0.0 | 1.0 | 0.00 | 0.11 | 0.11 | 95 | 1005.0 |
| 20260506215020 | 59 | 327 | 1.0 | 1.0 | 0.00 | 0.11 | 0.11 | 95 | 1005.0 |
| 20260506214518 | 59 | 339 | 0.0 | 0.0 | 0.00 | 0.11 | 0.11 | 95 | 1005.0 |
| 20260506214015 | 59 | 330 | 1.0 | 1.0 | 0.00 | 0.11 | 0.11 | 95 | 1005.0 |
| 20260506213513 | 59 | 336 | 2.0 | 2.0 | 0.00 | 0.11 | 0.11 | 95 | 1004.9 |
| 20260506213010 | 59 | 326 | 0.0 | 1.0 | 0.00 | 0.11 | 0.11 | 95 | 1005.0 |
| 20260506212506 | 59 | 345 | 1.0 | 1.0 | 0.07 | 0.11 | 0.11 | 95 | 1005.0 |
| 20260506212001 | 59 | 338 | 1.0 | 2.0 | 0.07 | 0.11 | 0.11 | 95 | 1005.2 |
| 20260506211457 | 59 | 338 | 1.0 | 1.0 | 0.07 | 0.11 | 0.11 | 95 | 1005.2 |
| 20260506210955 | 59 | 326 | 1.0 | 1.0 | 0.00 | 0.10 | 0.10 | 95 | 1005.3 |
| 20260506210451 | 59 | 314 | 2.0 | 2.0 | 0.00 | 0.10 | 0.10 | 95 | 1005.2 |
| 20260506205948 | 59 | 356 | 1.0 | 1.0 | 0.00 | 0.10 | 0.10 | 95 | 1005.0 |
| 20260506205444 | 59 | 119 | 4.0 | 6.0 | 0.00 | 0.10 | 0.10 | 95 | 1005.2 |
| 20260506204940 | 59 | 215 | 2.0 | 2.0 | 0.00 | 0.10 | 0.10 | 95 | 1005.3 |
| 20260506204438 | 60 | 321 | 2.0 | 2.0 | 0.00 | 0.10 | 0.10 | 95 | 1005.4 |
| 20260506203935 | 60 | 345 | 1.0 | 2.0 | 0.07 | 0.10 | 0.10 | 95 | 1005.1 |
| 20260506203433 | 60 | 342 | 1.0 | 1.0 | 0.07 | 0.10 | 0.10 | 95 | 1005.3 |
| 20260506202929 | 60 | 26 | 2.0 | 2.0 | 0.07 | 0.10 | 0.10 | 95 | 1005.4 |
| 20260506202427 | 60 | 352 | 5.0 | 7.0 | 0.05 | 0.09 | 0.09 | 94 | 1005.6 |
| 20260506201923 | 60 | 342 | 1.0 | 1.0 | 0.05 | 0.09 | 0.09 | 94 | 1005.4 |
| 20260506201421 | 60 | 318 | 2.0 | 2.0 | 0.00 | 0.08 | 0.08 | 94 | 1005.6 |
| 20260506200917 | 60 | 268 | 1.0 | 1.0 | 0.07 | 0.08 | 0.08 | 94 | 1005.6 |
| 20260506200413 | 60 | 347 | 1.0 | 2.0 | 0.07 | 0.08 | 0.08 | 94 | 1005.6 |
| 20260506195910 | 60 | 335 | 0.0 | 1.0 | 0.00 | 0.07 | 0.07 | 94 | 1005.4 |
| 20260506195407 | 60 | 29 | 1.0 | 1.0 | 0.05 | 0.07 | 0.07 | 94 | 1005.7 |
| 20260506194904 | 60 | 28 | 2.0 | 2.0 | 0.05 | 0.07 | 0.07 | 93 | 1005.9 |
| 20260506194401 | 60 | 335 | 0.0 | 0.0 | 0.00 | 0.06 | 0.06 | 93 | 1005.8 |
| 20260506193858 | 60 | 334 | 2.0 | 2.0 | 0.00 | 0.06 | 0.06 | 93 | 1005.8 |
| 20260506193355 | 60 | 319 | 2.0 | 2.0 | 0.00 | 0.06 | 0.06 | 93 | 1005.9 |
| 20260506192851 | 60 | 353 | 1.0 | 2.0 | 0.07 | 0.06 | 0.06 | 92 | 1006.1 |
| 20260506192348 | 60 | 277 | 2.0 | 2.0 | 0.07 | 0.06 | 0.06 | 92 | 1006.0 |
| 20260506191845 | 61 | 41 | 2.0 | 2.0 | 0.00 | 0.05 | 0.05 | 92 | 1005.7 |
| 20260506191341 | 60 | 339 | 1.0 | 1.0 | 0.00 | 0.05 | 0.05 | 92 | 1005.7 |
| 20260506190838 | 61 | 329 | 1.0 | 1.0 | 0.00 | 0.05 | 0.05 | 93 | 1005.7 |
| 20260506190334 | 61 | 332 | 0.0 | 0.0 | 0.00 | 0.05 | 0.05 | 93 | 1005.5 |
| 20260506185831 | 60 | 335 | 0.0 | 0.0 | 0.00 | 0.05 | 0.05 | 93 | 1005.6 |
| 20260506185328 | 60 | 344 | 0.0 | 0.0 | 0.00 | 0.05 | 0.05 | 93 | 1005.9 |
| 20260506184825 | 61 | 343 | 0.0 | 0.0 | 0.00 | 0.05 | 0.05 | 93 | 1005.8 |
| 20260506184323 | 61 | 334 | 0.0 | 0.0 | 0.00 | 0.05 | 0.05 | 94 | 1006.4 |
| 20260506183820 | 61 | 334 | 0.0 | 0.0 | 0.00 | 0.05 | 0.05 | 93 | 1006.2 |
| 20260506183315 | 61 | 339 | 0.0 | 1.0 | 0.00 | 0.05 | 0.05 | 93 | 1006.3 |
| 20260506182812 | 60 | 339 | 0.0 | 0.0 | 0.00 | 0.05 | 0.05 | 93 | 1006.5 |
| 20260506182310 | 61 | 342 | 0.0 | 0.0 | 0.05 | 0.05 | 0.05 | 93 | 1006.6 |
| 20260506181808 | 61 | 329 | 0.0 | 0.0 | 0.05 | 0.05 | 0.05 | 93 | 1007.0 |
| 20260506181305 | 61 | 334 | 1.0 | 1.0 | 0.00 | 0.04 | 0.04 | 93 | 1006.7 |
| 20260506180802 | 61 | 334 | 0.0 | 0.0 | 0.07 | 0.04 | 0.04 | 92 | 1006.7 |
| 20260506180257 | 61 | 334 | 0.0 | 0.0 | 0.12 | 0.04 | 0.04 | 92 | 1006.8 |
| 20260506175754 | 61 | 337 | 1.0 | 1.0 | 0.12 | 0.03 | 0.03 | 92 | 1007.0 |
| 20260506175251 | 61 | 330 | 0.0 | 0.0 | 0.07 | 0.02 | 0.02 | 91 | 1007.0 |
| 20260506174749 | 61 | 336 | 0.0 | 0.0 | 0.05 | 0.01 | 0.01 | 90 | 1007.0 |
| 20260506174245 | 62 | 311 | 1.0 | 1.0 | 0.05 | 0.01 | 0.01 | 89 | 1007.1 |
| 20260506173743 | 62 | 341 | 1.0 | 1.0 | 0.00 | 0.00 | 0.00 | 88 | 1007.1 |
| 20260506173240 | 63 | 307 | 1.0 | 2.0 | 0.00 | 0.00 | 0.00 | 85 | 1007.1 |
| 20260506172737 | 64 | 322 | 1.0 | 1.0 | 0.00 | 0.00 | 0.00 | 81 | 1007.2 |
| 20260506172233 | 65 | 338 | 2.0 | 2.0 | 0.00 | 0.00 | 0.00 | 79 | 1007.0 |
| 20260506171731 | 65 | 296 | 1.0 | 2.0 | 0.00 | 0.00 | 0.00 | 75 | 1006.9 |
| 20260506171228 | 66 | 139 | 2.0 | 5.0 | 0.00 | 0.00 | 0.00 | 73 | 1007.0 |
| 20260506170726 | 67 | 125 | 3.0 | 5.0 | 0.00 | 0.00 | 0.00 | 71 | 1006.9 |
| 20260506170222 | 67 | 334 | 2.0 | 2.0 | 0.00 | 0.00 | 0.00 | 70 | 1006.7 |
| 20260506165720 | 68 | 227 | 3.0 | 5.0 | 0.00 | 0.00 | 0.00 | 69 | 1007.1 |
| 20260506165217 | 68 | 240 | 3.0 | 5.0 | 0.00 | 0.00 | 0.00 | 68 | 1006.8 |
| 20260506164714 | 68 | 170 | 3.0 | 5.0 | 0.00 | 0.00 | 0.00 | 68 | 1006.8 |
| 20260506164211 | 68 | 261 | 3.0 | 5.0 | 0.00 | 0.00 | 0.00 | 67 | 1007.1 |
| 20260506163708 | 68 | 187 | 3.0 | 5.0 | 0.00 | 0.00 | 0.00 | 68 | 1006.7 |
| 20260506163203 | 68 | 73 | 2.0 | 2.0 | 0.00 | 0.00 | 0.00 | 68 | 1007.0 |
| 20260506162659 | 68 | 292 | 1.0 | 2.0 | 0.00 | 0.00 | 0.00 | 69 | 1006.9 |
| 20260506162157 | 68 | 321 | 2.0 | 3.0 | 0.00 | 0.00 | 0.00 | 69 | 1006.8 |
| 20260506161654 | 68 | 336 | 2.0 | 2.0 | 0.00 | 0.00 | 0.00 | 72 | 1007.1 |
| 20260506161150 | 68 | 307 | 1.0 | 2.0 | 0.00 | 0.00 | 0.00 | 72 | 1007.5 |
| 20260506160648 | 68 | 356 | 2.0 | 2.0 | 0.00 | 0.00 | 0.00 | 71 | 1007.2 |
| 20260506160145 | 68 | 332 | 0.0 | 1.0 | 0.00 | 0.00 | 0.00 | 71 | 1007.4 |
| 20260506155644 | 68 | 332 | 1.0 | 1.0 | 0.00 | 0.00 | 0.00 | 71 | 1007.5 |
| 20260506155140 | 67 | 3 | 2.0 | 2.0 | 0.00 | 0.00 | 0.00 | 72 | 1008.0 |
| 20260506153242 | 67 | 301 | 2.0 | 2.0 | 0.00 | 0.00 | 0.00 | 73 | 1007.7 |
| 20260506152739 | 67 | 346 | 0.0 | 1.0 | 0.00 | 0.00 | 0.00 | 72 | 1008.1 |
| 20260506152237 | 67 | 35 | 2.0 | 2.0 | 0.00 | 0.00 | 0.00 | 72 | 1008.1 |
| 20260506151736 | 67 | 335 | 0.0 | 1.0 | 0.00 | 0.00 | 0.00 | 73 | 1008.3 |
| 20260506151232 | 68 | 275 | 3.0 | 5.0 | 0.00 | 0.00 | 0.00 | 72 | 1008.3 |
| 20260506150728 | 68 | 352 | 2.0 | 2.0 | 0.00 | 0.00 | 0.00 | 71 | 1008.2 |
| 20260506150225 | 68 | 1 | 2.0 | 3.0 | 0.00 | 0.00 | 0.00 | 70 | 1008.4 |
| 20260506145722 | 68 | 322 | 1.0 | 1.0 | 0.00 | 0.00 | 0.00 | 70 | 1008.2 |
| 20260506145219 | 68 | 229 | 3.0 | 3.0 | 0.00 | 0.00 | 0.00 | 71 | 1008.0 |
| 20260506144716 | 67 | 309 | 3.0 | 3.0 | 0.00 | 0.00 | 0.00 | 73 | 1008.0 |
| 20260506144213 | 67 | 329 | 1.0 | 1.0 | 0.00 | 0.00 | 0.00 | 73 | 1008.3 |
| 20260506143711 | 68 | 115 | 1.0 | 2.0 | 0.00 | 0.00 | 0.00 | 73 | 1008.0 |
| 20260506143208 | 68 | 323 | 0.0 | 1.0 | 0.00 | 0.00 | 0.00 | 72 | 1008.2 |
| 20260506142707 | 68 | 222 | 2.0 | 2.0 | 0.00 | 0.00 | 0.00 | 72 | 1008.0 |
| 20260506142204 | 67 | 292 | 1.0 | 3.0 | 0.00 | 0.00 | 0.00 | 73 | 1008.1 |